SCP
-0 0 0 0 0 0 -0 -0 -0 -0 -0 -0 -0 -0 0 0 0 0 0 -0 -0 0 0 0 0 0 0 -0 -0 -0 -0 -0 -0 -0 -0 -0 -0 -0 -0 -0 -0 -0 -0
-0 -0 0 0 0 0 0 0 0 0 -0 -0 -0 0 -0 -0 -0 0 -0 -0 -0 -0 -0 0 -0 -0 -0 -0 -0 -0 -0 -0 -0 -0 -0 -0 -0 -0 -0 -0 -0 -0 -0
0 0 0 0 0 0 0 0 0 0 0 0 0 0 -0 0 0 0 -0 -0 -0 -0 -0 -0 0 0 0 0 -0 -0 -0 -0 -0 -0 -0 0 -0 -0 -0 -0 -0 -0 -0
0 0 0 0 0 0 0 0 0 0 0 0 -0 -0 0 0 0 0 -0 -0 -0 -0 -0 0 -0 0 0 0 0 0 0 0 0 -0 0 0 -0 -0 -0 -0 -0 -0 -0
0 0 0 0 0 0 0 0 0 0 0 0 -0 0 0 0 0 0 0 0 -0 -0 0 0 0 0 0 0 0 0 -0 -0 0 0 -0 -0 -0 -0 -0 -0 -0 -0 -0
0 0 0 0 0 0 0 0 0 0 0 -0 0 -0 0 0 0 0 0 -0 0 0 0 0 0 0 0 0 0 0 0 0 -0 0 -0 -0 -0 -0 -0 -0 -0 -0 -0
0 0 0 0 0 0 0 0 0 -0 -0 0 0 0 -0 0 0 -0 0 0 0 0 0 0 0 0 0 0 0 0 0 0 0 -0 0 -0 0 -0 -0 -0 -0 -0 -0
-0 0 0 0 0 0 0 0 -0 -0 0 0 0 0 0 0 0 0 0 0 0 0 0 0 0 0 0 0 0 0 0 0 -0 0 -0 -0 -0 -0 -0 -0 -0 -0 -0
-0 -0 0 -0 0 0 0 0 -0 0 0 0 0 0 0 0 0 0 0 0 0 0 0 0 0 0 0 0 0 0 0 -0 0 -0 -0 -0 -0 -0 -0 -0 -0 -0 -0
-0 0 -0 -0 -0 -0 -0 -0 0 0 0 0 0 0 0 0 0 0 0 0 0 0 0 0 0 0 0 0 0 0 0 -0 0 0 0 0 -0 -0 -0 -0 -0 -0 -0
0 0 -0 -0 -0 -0 0 0 0 0 0 0 0 0 0 0 0 0 0 0 0 0 0 0 0 0 0 0 0 0 0 0 0 0 0 -0 -0 -0 -0 -0 -0 -0 -0
0 0 0 -0 -0 -0 0 0 0 0 0 0 0 0 0 0 0 0 0 0 0 0 0 0 0 0 0 0 0 0 0 0 0 0 0 -0 -0 -0 -0 -0 -0 -0 -0
0 0 0 -0 -0 -0 -0 -0 0 0 0 0 0 0 0 0 0 0 -0 -0 0 0 0 0 0 0 0 0 -0 -0 0 0 0 0 0 -0 -0 -0 -0 -0 -0 -0 -0
0 0 0 -0 -0 -0 -0 -0 -0 -0 -0 0 0 0 0 0 0 0 -0 0 0 0 0 0 0 0 0 0 -0 0 0 -0 0 0 0 -0 -0 -0 -0 -0 -0 -0 -0
0 0 0 0 -0 -0 -0 -0 -0 -0 -0 0 -0 0 0 -0 0 -0 0 0 0 0 0 0 0 0 0 0 0 0 0 -0 -0 0 0 -0 -0 -0 -0 -0 -0 -0 -0
-0 0 0 0 -0 -0 -0 -0 -0 -0 0 0 0 0 0 0 0 0 0 0 0 0 0 0 0 0 0 0 0 0 -0 -0 -0 0 0 0 -0 -0 -0 -0 -0 -0 -0
-0 0 0 -0 -0 -0 -0 -0 -0 0 0 0 0 0 0 0 0 0 0 0 0 0 -0 0 0 -0 0 0 0 -0 0 0 0 0 0 0 0 -0 -0 -0 -0 -0 -0
-0 -0 0 -0 -0 -0 -0 -0 0 0 0 0 0 0 0 0 0 0 -0 -0 0 0 0 0 0 0 -0 -0 0 0 0 0 0 0 0 0 0 0 0 -0 -0 -0 -0
0 0 -0 -0 -0 -0 0 0 0 0 0 0 0 0 0 0 0 0 0 0 0 0 0 0 0 0 -0 -0 0 0 0 0 0 0 0 0 0 0 -0 0 -0 -0 -0
0 0 0 0 0 0 0 -0 0 0 0 0 0 0 0 0 0 0 0 0 0 -0 0 0 0 0 -0 -0 -0 -0 0 0 0 0 0 0 0 0 0 0 0 0 -0
0 0 -0 0 0 0 0 0 0 -0 0 0 0 0 0 0 0 0 0 0 0 0 0 0 0 0 -0 -0 -0 -0 0 0 0 0 0 0 0 0 0 -0 0 0 0
0 0 0 0 0 0 0 0 0 0 -0 -0 -0 -0 0 -0 -0 0 0 0 0 0 0 0 0 -0 -0 -0 -0 -0 -0 0 0 0 0 0 0 0 0 0 0 0 0
0 -0 0 0 0 0 0 -0 0 -0 -0 -0 -0 0 0 -0 -0 -0 -0 0 0 0 0 0 0 0 -0 -0 -0 -0 -0 0 0 0 0 0 0 0 0 0 0 0 0
0 0 0 0 0 0 0 0 0 0 0 -0 -0 0 0 -0 -0 -0 -0 -0 -0 0 0 0 -0 0 -0 0 -0 -0 -0 0 0 0 0 0 0 0 0 0 0 0 0
-0 0 0 0 0 0 0 0 0 0 0 -0 -0 -0 -0 -0 -0 -0 -0 -0 -0 -0 -0 0 0 0 0 0 0 -0 -0 0 0 0 0 0 0 0 0 0 0 0 0
-0 0 0 -0 0 0 0 0 0 0 0 -0 -0 -0 -0 -0 -0 -0 -0 -0 -0 -0 -0 -0 -0 -0 -0 0 0 0 0 0 0 0 0 0 0 0 0 0 0 0 0
Wind_Speed_500mb
53 53 52 53 53 47 44 42 39 37 35 36 37 38 37 36 34 31 28 28 27 22 20 19 20 20 15 11 12 15 15 15 19 21 20 20 20 19 25 22 23 24 24
61 55 52 53 50 44 42 39 37 35 34 37 36 36 36 35 34 31 30 31 29 26 27 30 26 20 21 21 20 22 25 26 27 23 22 22 21 17 18 21 23 24 26
60 58 55 55 50 43 40 37 35 34 36 34 34 34 35 35 33 31 31 32 30 28 29 24 23 26 27 32 32 29 32 37 37 33 29 24 24 25 22 24 23 24 25
63 61 58 55 49 42 38 36 34 34 34 31 34 34 34 34 32 32 30 30 30 29 28 28 30 27 28 34 37 35 34 32 31 37 32 22 18 19 23 25 26 26 27
64 62 57 54 47 41 37 34 33 33 33 30 33 35 33 33 31 28 30 27 28 29 29 28 29 30 30 34 37 36 37 28 27 31 28 22 20 23 25 26 27 26 27
65 60 58 51 45 40 36 33 32 32 30 31 35 32 31 32 32 30 28 28 27 26 25 25 25 26 28 33 37 35 35 34 33 26 22 20 19 24 26 25 24 26 28
65 58 56 50 45 40 35 32 33 29 28 30 33 31 30 31 32 31 31 30 30 27 25 25 23 24 26 30 25 28 30 26 27 22 15 18 19 21 22 24 26 26 27
64 58 55 49 44 39 35 32 31 28 28 29 31 31 30 31 33 33 33 34 31 29 27 23 21 21 25 29 25 23 25 26 23 19 19 19 18 22 24 25 24 25 25
58 58 55 50 44 39 35 32 29 28 29 29 31 32 31 31 32 31 31 30 29 28 25 23 24 25 31 36 28 20 22 24 19 24 20 15 17 21 24 24 25 26 26
56 54 53 49 44 40 36 31 29 31 32 32 34 35 33 32 32 30 28 26 24 25 22 24 26 26 30 32 31 21 18 18 19 18 12 13 14 20 23 23 24 24 24
54 54 51 47 43 40 36 32 30 33 34 35 37 30 33 33 33 31 26 21 19 23 22 20 24 25 27 28 23 16 21 21 15 10 11 13 14 16 20 23 23 23 22
59 55 51 47 43 39 35 32 33 34 33 31 26 25 26 25 27 29 28 22 18 23 22 17 16 21 20 21 24 20 18 18 13 10 11 11 11 12 17 21 21 24 20
60 53 52 47 42 39 36 34 35 32 27 23 26 22 12 15 21 25 26 25 21 21 18 17 17 17 13 10 16 17 13 12 13 13 16 12 11 14 16 17 19 20 20
58 53 51 48 44 40 35 34 34 32 25 24 26 17 15 16 19 19 18 21 15 16 15 21 19 17 14 10 21 16 13 11 15 12 13 11 12 14 15 14 17 18 17
59 51 53 50 46 47 38 36 35 29 25 26 21 14 6 19 17 19 17 17 13 13 17 18 12 12 15 10 19 14 18 14 11 12 12 11 11 13 13 12 13 14 14
60 53 55 52 49 48 35 36 31 26 20 19 16 14 7 13 12 19 17 17 14 13 12 12 14 10 10 15 10 12 15 17 17 14 13 13 11 13 13 12 10 10 10
67 57 63 56 48 43 38 38 28 23 24 22 18 13 5 2 8 11 13 18 14 8 12 11 11 4 13 13 11 11 11 10 15 13 10 17 13 13 10 10 8 6 7
70 68 63 61 54 47 47 44 30 29 28 28 21 17 7 13 15 5 13 20 11 11 10 9 7 4 9 16 18 9 10 12 13 12 10 13 16 17 14 10 9 7 6
78 74 72 71 64 58 51 49 44 43 34 28 24 18 13 8 17 12 12 16 16 17 14 11 7 8 15 23 18 12 10 10 8 13 11 13 11 12 16 14 10 8 4
74 82 74 82 72 65 54 50 54 54 47 37 30 25 21 17 12 17 19 14 16 15 19 17 15 12 12 16 19 15 11 15 12 14 10 11 9 8 10 11 5 6 4
84 75 82 91 80 73 67 66 66 59 56 47 37 32 27 24 21 16 22 22 19 18 19 17 15 20 17 13 21 13 19 19 13 6 4 8 7 9 7 7 4 7 7
97 92 89 91 82 75 62 59 72 71 61 54 46 41 35 30 27 19 21 21 19 17 18 16 14 22 14 19 19 19 15 16 13 10 12 11 9 10 11 6 5 4 4
102 99 96 92 83 75 65 56 53 67 67 61 58 52 45 34 30 24 21 25 23 23 14 13 23 20 18 27 22 16 17 8 15 12 14 15 17 13 10 1 4 8 8
108 103 104 98 88 79 72 65 59 67 73 72 60 57 51 40 34 27 23 26 26 24 20 15 24 23 23 27 21 16 14 18 14 13 18 18 19 18 7 2 3 8 14
113 109 112 104 94 86 79 72 68 65 67 60 53 46 46 48 38 31 30 27 25 26 23 19 22 25 24 22 28 24 18 13 22 19 22 21 17 18 16 10 10 5 6
116 113 118 110 100 90 84 77 75 71 62 62 56 50 45 42 38 35 32 28 27 29 29 29 26 25 24 23 23 34 22 22 29 16 25 24 25 25 25 20 19 16 11
Wind_Direction_500mb
148 142 143 141 137 131 126 123 118 116 117 116 115 115 119 122 125 126 127 127 128 124 119 112 107 100 95 109 121 128 124 113 109 105 107 115 123 120 106 91 103 102 99
147 144 145 145 141 132 128 122 119 114 111 108 107 108 113 113 114 121 124 121 115 112 112 110 106 101 89 104 116 113 115 117 112 106 112 122 118 114 109 94 103 108 105
147 145 146 147 142 134 126 124 118 114 107 104 106 106 107 108 111 114 114 116 110 111 112 106 100 98 99 104 104 113 117 119 108 105 112 116 108 113 109 108 108 106 107
147 147 146 146 143 134 130 124 122 114 109 110 109 109 107 102 104 108 112 115 115 110 107 100 100 99 100 105 106 110 118 122 115 106 98 112 123 118 116 113 112 113 114
148 147 146 148 145 139 132 128 123 113 109 112 112 107 105 110 108 104 108 113 114 107 104 101 99 99 105 108 107 106 115 111 114 97 86 97 110 121 112 113 116 115 115
148 148 147 150 148 143 135 134 124 116 112 115 113 103 102 101 103 103 106 105 108 106 97 91 94 106 114 115 112 110 110 99 106 107 93 91 111 114 122 121 117 120 117
150 149 149 152 149 143 139 137 124 121 117 116 114 107 101 102 99 97 97 99 99 98 94 88 90 103 121 131 119 108 112 122 104 94 95 112 121 129 126 122 120 120 120
153 151 151 150 149 145 145 137 125 125 120 118 114 109 106 102 101 98 99 97 94 95 95 88 82 101 120 136 129 112 116 107 102 81 97 101 112 120 120 122 124 123 124
156 155 154 155 152 148 147 133 126 127 124 119 114 112 110 109 107 104 102 100 97 97 98 81 69 98 123 132 125 112 126 110 106 91 101 98 111 123 121 121 121 122 122
162 160 158 156 154 153 144 138 131 133 129 123 121 119 119 119 114 108 106 103 99 99 101 85 82 98 118 136 133 135 126 108 104 88 73 91 112 123 120 122 125 124 121
167 166 163 160 159 157 145 141 137 135 133 135 130 122 119 118 113 109 113 110 109 98 97 96 95 103 121 130 128 134 116 117 113 80 62 101 114 127 125 122 123 122 127
173 171 169 166 164 159 151 145 142 139 141 138 132 120 127 128 120 119 124 126 124 100 102 111 115 118 126 134 121 132 118 113 93 64 85 102 107 128 130 132 130 130 129
174 175 175 172 168 161 156 150 150 148 141 138 130 139 149 126 127 113 123 128 126 116 107 112 119 125 133 170 152 140 137 144 82 76 75 98 124 134 141 137 136 137 136
178 179 180 178 171 159 156 154 150 148 136 129 125 104 127 133 126 123 139 137 126 121 119 114 123 118 110 147 183 155 133 133 92 87 58 102 132 146 144 147 142 142 147
184 185 187 181 174 157 147 153 156 142 138 131 131 146 134 136 108 119 136 154 140 131 106 125 154 140 115 102 153 160 164 128 120 101 59 92 131 145 143 144 154 150 150
189 190 185 182 174 167 163 162 160 165 162 155 139 157 137 134 133 128 148 118 144 136 154 117 151 156 126 148 128 131 125 129 105 97 76 77 114 134 141 155 154 156 163
195 189 184 182 179 174 168 176 180 189 191 172 174 166 193 249 131 138 138 159 120 131 132 136 161 168 175 171 142 124 116 116 121 102 79 62 94 120 135 142 158 162 165
195 193 191 185 184 182 181 189 187 199 184 176 185 194 203 276 250 227 148 164 172 170 147 154 194 116 153 156 137 134 173 146 150 120 98 91 92 99 111 130 140 148 171
202 198 201 194 191 192 191 189 190 187 180 191 201 204 210 257 233 216 175 181 169 173 166 170 139 141 144 157 144 135 187 175 177 148 123 140 98 106 103 101 106 115 126
206 206 211 201 198 199 204 199 197 198 195 195 199 208 218 227 224 221 199 201 190 205 174 181 193 178 160 154 152 147 156 167 149 132 137 144 150 122 122 111 93 128 79
208 209 208 203 202 202 206 208 205 204 199 198 201 213 215 226 231 230 208 194 186 185 197 220 222 180 158 159 160 149 148 170 157 147 114 138 165 160 163 111 79 129 12
206 209 209 206 205 206 211 210 210 210 208 210 204 216 215 222 230 231 221 212 189 199 207 191 186 175 168 169 164 169 162 158 180 200 197 163 187 172 169 168 231 288 330
208 209 211 208 208 209 213 211 211 214 216 214 209 213 219 216 226 232 234 219 206 204 210 203 191 185 176 173 167 166 161 180 170 191 202 195 182 169 179 138 53 33 41
208 210 213 213 210 213 214 214 211 208 210 212 211 212 220 221 226 240 238 224 216 210 202 209 195 189 179 194 195 185 181 188 185 185 200 200 200 196 209 320 21 46 61
208 212 211 213 213 217 220 222 218 216 216 216 214 209 214 223 229 238 236 222 216 217 214 201 197 200 195 203 195 181 175 194 199 208 213 207 211 221 234 260 314 319 27
209 212 210 211 214 218 222 226 224 221 220 218 214 211 212 218 224 223 223 220 221 222 222 214 211 205 210 211 192 194 199 195 196 220 223 228 242 243 244 255 274 276 281
Wind_Speed_850mb
53 53 52 53 53 47 44 42 39 37 35 36 37 38 37 36 34 31 28 28 27 22 20 19 20 20 15 11 12 15 15 15 19 21 20 20 20 19 25 22 23 24 24
61 55 52 53 50 44 42 39 37 35 34 37 36 36 36 35 34 31 30 31 29 26 27 30 26 20 21 21 20 22 25 26 27 23 22 22 21 17 18 21 23 24 26
60 58 55 55 50 43 40 37 35 34 36 34 34 34 35 35 33 31 31 32 30 28 29 24 23 26 27 32 32 29 32 37 37 33 29 24 24 25 22 24 23 24 25
63 61 58 55 49 42 38 36 34 34 34 31 34 34 34 34 32 32 30 30 30 29 28 28 30 27 28 34 37 35 34 32 31 37 32 22 18 19 23 25 26 26 27
64 62 57 54 47 41 37 34 33 33 33 30 33 35 33 33 31 28 30 27 28 29 29 28 29 30 30 34 37 36 37 28 27 31 28 22 20 23 25 26 27 26 27
65 60 58 51 45 40 36 33 32 32 30 31 35 32 31 32 32 30 28 28 27 26 25 25 25 26 28 33 37 35 35 34 33 26 22 20 19 24 26 25 24 26 28
65 58 56 50 45 40 35 32 33 29 28 30 33 31 30 31 32 31 31 30 30 27 25 25 23 24 26 30 25 28 30 26 27 22 15 18 19 21 22 24 26 26 27
64 58 55 49 44 39 35 32 31 28 28 29 31 31 30 31 33 33 33 34 31 29 27 23 21 21 25 29 25 23 25 26 23 19 19 19 18 22 24 25 24 25 25
58 58 55 50 44 39 35 32 29 28 29 29 31 32 31 31 32 31 31 30 29 28 25 23 24 25 31 36 28 20 22 24 19 24 20 15 17 21 24 24 25 26 26
56 54 53 49 44 40 36 31 29 31 32 32 34 35 33 32 32 30 28 26 24 25 22 24 26 26 30 32 31 21 18 18 19 18 12 13 14 20 23 23 24 24 24
54 54 51 47 43 40 36 32 30 33 34 35 37 30 33 33 33 31 26 21 19 23 22 20 24 25 27 28 23 16 21 21 15 10 11 13 14 16 20 23 23 23 22
59 55 51 47 43 39 35 32 33 34 33 31 26 25 26 25 27 29 28 22 18 23 22 17 16 21 20 21 24 20 18 18 13 10 11 11 11 12 17 21 21 24 20
60 53 52 47 42 39 36 34 35 32 27 23 26 22 12 15 21 25 26 25 21 21 18 17 17 17 13 10 16 17 13 12 13 13 16 12 11 14 16 17 19 20 20
58 53 51 48 44 40 35 34 34 32 25 24 26 17 15 16 19 19 18 21 15 16 15 21 19 17 14 10 21 16 13 11 15 12 13 11 12 14 15 14 17 18 17
59 51 53 50 46 47 38 36 35 29 25 26 21 14 6 19 17 19 17 17 13 13 17 18 12 12 15 10 19 14 18 14 11 12 12 11 11 13 13 12 13 14 14
60 53 55 52 49 48 35 36 31 26 20 19 16 14 7 13 12 19 17 17 14 13 12 12 14 10 10 15 10 12 15 17 17 14 13 13 11 13 13 12 10 10 10
67 57 63 56 48 43 38 38 28 23 24 22 18 13 5 2 8 11 13 18 14 8 12 11 11 4 13 13 11 11 11 10 15 13 10 17 13 13 10 10 8 6 7
70 68 63 61 54 47 47 44 30 29 28 28 21 17 7 13 15 5 13 20 11 11 10 9 7 4 9 16 18 9 10 12 13 12 10 13 16 17 14 10 9 7 6
78 74 72 71 64 58 51 49 44 43 34 28 24 18 13 8 17 12 12 16 16 17 14 11 7 8 15 23 18 12 10 10 8 13 11 13 11 12 16 14 10 8 4
74 82 74 82 72 65 54 50 54 54 47 37 30 25 21 17 12 17 19 14 16 15 19 17 15 12 12 16 19 15 11 15 12 14 10 11 9 8 10 11 5 6 4
84 75 82 91 80 73 67 66 66 59 56 47 37 32 27 24 21 16 22 22 19 18 19 17 15 20 17 13 21 13 19 19 13 6 4 8 7 9 7 7 4 7 7
97 92 89 91 82 75 62 59 72 71 61 54 46 41 35 30 27 19 21 21 19 17 18 16 14 22 14 19 19 19 15 16 13 10 12 11 9 10 11 6 5 4 4
102 99 96 92 83 75 65 56 53 67 67 61 58 52 45 34 30 24 21 25 23 23 14 13 23 20 18 27 22 16 17 8 15 12 14 15 17 13 10 1 4 8 8
108 103 104 98 88 79 72 65 59 67 73 72 60 57 51 40 34 27 23 26 26 24 20 15 24 23 23 27 21 16 14 18 14 13 18 18 19 18 7 2 3 8 14
113 109 112 104 94 86 79 72 68 65 67 60 53 46 46 48 38 31 30 27 25 26 23 19 22 25 24 22 28 24 18 13 22 19 22 21 17 18 16 10 10 5 6
116 113 118 110 100 90 84 77 75 71 62 62 56 50 45 42 38 35 32 28 27 29 29 29 26 25 24 23 23 34 22 22 29 16 25 24 25 25 25 20 19 16 11
Wind_Direction_850mb
148 142 143 141 137 131 126 123 118 116 117 116 115 115 119 122 125 126 127 127 128 124 119 112 107 100 95 109 121 128 124 113 109 105 107 115 123 120 106 91 103 102 99
147 144 145 145 141 132 128 122 119 114 111 108 107 108 113 113 114 121 124 121 115 112 112 110 106 101 89 104 116 113 115 117 112 106 112 122 118 114 109 94 103 108 105
147 145 146 147 142 134 126 124 118 114 107 104 106 106 107 108 111 114 114 116 110 111 112 106 100 98 99 104 104 113 117 119 108 105 112 116 108 113 109 108 108 106 107
147 147 146 146 143 134 130 124 122 114 109 110 109 109 107 102 104 108 112 115 115 110 107 100 100 99 100 105 106 110 118 122 115 106 98 112 123 118 116 113 112 113 114
148 147 146 148 145 139 132 128 123 113 109 112 112 107 105 110 108 104 108 113 114 107 104 101 99 99 105 108 107 106 115 111 114 97 86 97 110 121 112 113 116 115 115
148 148 147 150 148 143 135 134 124 116 112 115 113 103 102 101 103 103 106 105 108 106 97 91 94 106 114 115 112 110 110 99 106 107 93 91 111 114 122 121 117 120 117
150 149 149 152 149 143 139 137 124 121 117 116 114 107 101 102 99 97 97 99 99 98 94 88 90 103 121 131 119 108 112 122 104 94 95 112 121 129 126 122 120 120 120
153 151 151 150 149 145 145 137 125 125 120 118 114 109 106 102 101 98 99 97 94 95 95 88 82 101 120 136 129 112 116 107 102 81 97 101 112 120 120 122 124 123 124
156 155 154 155 152 148 147 133 126 127 124 119 114 112 110 109 107 104 102 100 97 97 98 81 69 98 123 132 125 112 126 110 106 91 101 98 111 123 121 121 121 122 122
162 160 158 156 154 153 144 138 131 133 129 123 121 119 119 119 114 108 106 103 99 99 101 85 82 98 118 136 133 135 126 108 104 88 73 91 112 123 120 122 125 124 121
167 166 163 160 159 157 145 141 137 135 133 135 130 122 119 118 113 109 113 110 109 98 97 96 95 103 121 130 128 134 116 117 113 80 62 101 114 127 125 122 123 122 127
173 171 169 166 164 159 151 145 142 139 141 138 132 120 127 128 120 119 124 126 124 100 102 111 115 118 126 134 121 132 118 113 93 64 85 102 107 128 130 132 130 130 129
174 175 175 172 168 161 156 150 150 148 141 138 130 139 149 126 127 113 123 128 126 116 107 112 119 125 133 170 152 140 137 144 82 76 75 98 124 134 141 137 136 137 136
178 179 180 178 171 159 156 154 150 148 136 129 125 104 127 133 126 123 139 137 126 121 119 114 123 118 110 147 183 155 133 133 92 87 58 102 132 146 144 147 142 142 147
184 185 187 181 174 157 147 153 156 142 138 131 131 146 134 136 108 119 136 154 140 131 106 125 154 140 115 102 153 160 164 128 120 101 59 92 131 145 143 144 154 150 150
189 190 185 182 174 167 163 162 160 165 162 155 139 157 137 134 133 128 148 118 144 136 154 117 151 156 126 148 128 131 125 129 105 97 76 77 114 134 141 155 154 156 163
195 189 184 182 179 174 168 176 180 189 191 172 174 166 193 249 131 138 138 159 120 131 132 136 161 168 175 171 142 124 116 116 121 102 79 62 94 120 135 142 158 162 165
195 193 191 185 184 182 181 189 187 199 184 176 185 194 203 276 250 227 148 164 172 170 147 154 194 116 153 156 137 134 173 146 150 120 98 91 92 99 111 130 140 148 171
202 198 201 194 191 192 191 189 190 187 180 191 201 204 210 257 233 216 175 181 169 173 166 170 139 141 144 157 144 135 187 175 177 148 123 140 98 106 103 101 106 115 126
206 206 211 201 198 199 204 199 197 198 195 195 199 208 218 227 224 221 199 201 190 205 174 181 193 178 160 154 152 147 156 167 149 132 137 144 150 122 122 111 93 128 79
208 209 208 203 202 202 206 208 205 204 199 198 201 213 215 226 231 230 208 194 186 185 197 220 222 180 158 159 160 149 148 170 157 147 114 138 165 160 163 111 79 129 12
206 209 209 206 205 206 211 210 210 210 208 210 204 216 215 222 230 231 221 212 189 199 207 191 186 175 168 169 164 169 162 158 180 200 197 163 187 172 169 168 231 288 330
208 209 211 208 208 209 213 211 211 214 216 214 209 213 219 216 226 232 234 219 206 204 210 203 191 185 176 173 167 166 161 180 170 191 202 195 182 169 179 138 53 33 41
208 210 213 213 210 213 214 214 211 208 210 212 211 212 220 221 226 240 238 224 216 210 202 209 195 189 179 194 195 185 181 188 185 185 200 200 200 196 209 320 21 46 61
208 212 211 213 213 217 220 222 218 216 216 216 214 209 214 223 229 238 236 222 216 217 214 201 197 200 195 203 195 181 175 194 199 208 213 207 211 221 234 260 314 319 27
209 212 210 211 214 218 222 226 224 221 220 218 214 211 212 218 224 223 223 220 221 222 222 214 211 205 210 211 192 194 199 195 196 220 223 228 242 243 244 255 274 276 281